This demonstration page uses our WeatherBlox Daily Observations layout. Learn more.

41.55636, -103.73856

Hourly Observations for August 22, 2015

Temp ( °F °C ) Dew Point ( °F °C ) Humidity (%) Winds ( mph kmh ) Pressure ( in mb ) Visibility ( mi km ) Precip ( " mm )
12:53 am 00:53 Clear 63 17.2 47 8.3 56 56 ESE 5 7 29.56 1001 9 14.48406 0 0
1:53 am 01:53 Clear 60 15.6 49 9.4 67 67 N 8 13 29.56 1001 9 14.48406 0 0
2:53 am 02:53 Clear 58 14.4 50 10 75 75 E 3 6 29.56 1001 9 14.48406 0 0
3:53 am 03:53 Clear 60 15.6 43 6.1 53 53 N 7 11 29.57 1001 9 14.48406 0 0
4:53 am 04:53 Clear 58 14.4 44 6.7 60 60 N 7 11 29.59 1002 9 14.48406 0 0
5:53 am 05:53 Clear 57 13.9 43 6.1 60 60 NNW 9 15 29.62 1003 9 14.48406 0 0
6:53 am 06:53 Hazy 62 16.7 41 5 46 46 W 9 15 29.67 1005 5 8.0467 0 0
7:53 am 07:53 Mostly Cloudy with Haze 63 17.2 49 9.4 60 60 NW 14 22 29.78 1008 4 6.43736 0 0
8:53 am 08:53 Hazy 65 18.3 50 10 59 59 NW 20 31 29.85 1011 5 8.0467 0 0
9:53 am 09:53 Hazy 66 18.9 49 9.4 54 54 NNW 24 39 29.87 1012 5 8.0467 0 0
10:53 am 10:53 Mostly Cloudy with Haze 67 19.4 47 8.3 49 49 NW 26 43 29.91 1013 4 6.43736 0 0
11:53 am 11:53 Cloudy with Haze 69 20.6 41 5 36 36 NNW 29 46 29.92 1013 4 6.43736 0 0
12:53 pm 12:53 Hazy 70 21.1 41 5 35 35 NNW 21 33 29.94 1014 5 8.0467 0 0
1:53 pm 13:53 Hazy 71 21.7 40 4.4 32 32 NNW 18 30 29.95 1014 5 8.0467 0 0
2:53 pm 14:53 Hazy 71 21.7 43 6.1 36 36 NNW 21 33 29.96 1015 6 9.65604 0 0
3:53 pm 15:53 Sunny 70 21.1 39 3.9 32 32 NNW 23 37 29.97 1015 8 12.87472 0 0
4:53 pm 16:53 Sunny 69 20.6 38 3.3 32 32 NNW 20 31 29.99 1016 9 14.48406 0 0
5:53 pm 17:53 Sunny 68 20 37 2.8 32 32 N 13 20 30.02 1017 10 16.0934 0 0
6:53 pm 18:53 Sunny 64 17.8 37 2.8 37 37 N 8 13 30.05 1018 10 16.0934 0 0
7:53 pm 19:53 Clear 57 13.9 39 3.9 51 51 N 6 9 30.11 1020 10 16.0934 0 0
8:53 pm 20:53 Clear 55 12.8 39 3.9 55 55 N 6 9 30.15 1021 10 16.0934 0 0
9:53 pm 21:53 Clear 53 11.7 38 3.3 57 57 W 3 6 30.19 1022 10 16.0934 0 0
10:53 pm 22:53 Clear 48 8.9 41 5 77 77 N 5 7 30.22 1023 10 16.0934 0 0
11:53 pm 23:53 Clear 45 7.2 39 3.9 80 80 W 3 6 30.24 1024 10 16.0934 0 0

Powered by AerisWeather